sat.trackr.live / text

‹ back to catalog

STARLINK-30411

NORAD 57828 · 2023-138W

PAYLOAD ACTIVE UNKNOWN

§ Identity

Operator
Country
US
Launch date
2023-09-09
Launch site
AFETR
Launch vehicle
Mass (kg)
RCS (m²)

Purposes: comms

External: N2YO · Heavens-Above · Gunter

§ Orbital elements

Epoch: 2026-09-20T13:35:48.852960Z

Period
94.27 min
Inclination
43.0026°
Eccentricity
0.0001118
Mean motion
15.27581576 rev/d
Perigee alt
482.3 km
Apogee alt
483.8 km
Semi-major
6,861.2 km
B*
1.2527e-5
RAAN
213.4726°
Arg perigee
270.8070°
Mean anomaly
89.2654°
Rev number
16,847

§ Raw data

STARLINK-304111 57828U 23138W   26263.56653765  .00000083  00000+0  12527-4 0  99902 57828  43.0026 213.4726 0001118 270.8070  89.2654 15.27581576168474

JSON: /api/v1/satellites/57828 · /tle

For live sub-satellite position, see the globe view (requires WebGL).

§ Visibility from observer

Set your observer location to see the next 7 days of passes ≥ 10°. The values pass through the URL so the page stays shareable.

No JS? Fill the form by hand. The geolocation button needs JavaScript.